This is the latest recevied weather packets stored in our database for station/object DL5TW-13. If no packets are shown the sender has not sent any weather packets the latest 1 day(s).
| Time | Temp. | Humidity | Pressure | Rain* | Wind** | Luminosity | Snow |
|---|---|---|---|---|---|---|---|
| 1778048460 | 13.89° C | 88% | 999.9 hPa | 0 mm | - | - | - |
| 1778047859 | 14.44° C | 89% | 1000.1 hPa | 0 mm | - | - | - |
| 1778047559 | 14.44° C | 90% | 1000 hPa | 0 mm | - | - | - |
| 1778047258 | 13.89° C | 91% | 1000 hPa | 0 mm | - | - | - |
| 1778046958 | 12.78° C | 93% | 999.8 hPa | 0 mm | - | - | - |
| 1778046658 | 12.22° C | 92% | 999.8 hPa | 0 mm | - | - | - |
| 1778046358 | 12.22° C | 92% | 1000 hPa | 0 mm | - | - | - |
| 1778045757 | 12.22° C | 93% | 1000.1 hPa | 0 mm | - | - | - |
| 1778045457 | 11.67° C | 93% | 1000.1 hPa | 0 mm | - | - | - |
| 1778044856 | 11.67° C | 93% | 1000.1 hPa | 0 mm | - | - | - |
| 1778044556 | 11.11° C | 93% | 1000.2 hPa | 0 mm | - | - | - |
| 1778044256 | 11.11° C | 93% | 1000.3 hPa | 0 mm | - | - | - |
| 1778043655 | 11.11° C | 92% | 1000.1 hPa | 0 mm | - | - | - |
| 1778043355 | 11.11° C | 92% | 1000.1 hPa | 0 mm | - | - | - |
| 1778042754 | 11.11° C | 92% | 1000.1 hPa | 0 mm | - | - | - |
| 1778042454 | 11.11° C | 92% | 1000.1 hPa | 0 mm | - | - | - |
| 1778042154 | 11.11° C | 92% | 1000.1 hPa | 0 mm | - | - | - |
| 1778041553 | 11.11° C | 92% | 999.9 hPa | 0 mm | - | - | - |
| 1778041253 | 11.11° C | 92% | 999.8 hPa | 0 mm | - | - | - |
| 1778040652 | 11.11° C | 92% | 999.8 hPa | 0 mm | - | - | - |
| 1778040352 | 11.11° C | 92% | 999.8 hPa | 0 mm | - | - | - |
| 1778040052 | 11.11° C | 92% | 999.7 hPa | 0 mm | - | - | - |
| 1778039451 | 11.11° C | 92% | 1000 hPa | 0 mm | - | - | - |
| 1778039151 | 11.11° C | 92% | 1000 hPa | 0 mm | - | - | - |
| 1778038550 | 11.11° C | 92% | 1000 hPa | 0 mm | - | - | - |
* Rain latest hour (hover to see other rain measurements)
** Current wind speed in m/s (hover to see current wind gust speed)